Location: El Bakhil
(32.7726°N, 5.5387°W)
Time: 19:55:38
(UTC+00:00)

CZ-2C R/B - Pass Details

Date: 03 March 2021
Orbit: 703 x 909 km, 98.1° (Epoch: 09 April)

Event Time Altitude Azimuth Distance (km) Brightness Sun altitude
Rises 18:57:13 0° 175° (S) 3,519 6.4 -8.4°
Reaches altitude 10° 18:59:41 10° 179° (S) 2,575 5.7 -8.9°
Maximum altitude 19:05:23 62° 259° (W) 998 3.9 -10.1°
Drops below altitude 10° 19:10:57 10° 340° (NNW) 2,509 5.9 -11.3°
Sets 19:13:20 0° 344° (NNW) 3,422 6.6 -11.8°
